When you browse on this site, cookies collect data to enhance your experience and personalize the content and advertising you see.
Visit our Privacy Policy to learn more. By continuing to use the site, you agree to this use of cookies and data.
  • In Romania
  • List of Countries
  • For 7 days
  • Water Temperature
  • Satellite Maps
  • Weather Map
  • Weather Widgets
  • user-avatar
    Login

    Hourly Weather Mayrhofen

    Today, 14 December, Friday

    Time Temperature Precipitation Wind Pressure Humidity
    00:00 -16°C° 0 mm 2 mps 609 mmHg 80%
    01:00 -16°C° 0 mm 2 mps 609 mmHg 76%
    02:00 -16°C° 0 mm 2 mps 608 mmHg 76%
    03:00 -14°C° 0 mm 1 mps 608 mmHg 76%
    04:00 -15°C° 0 mm 1 mps 608 mmHg 76%
    05:00 -15°C° 0 mm 1 mps 608 mmHg 74%
    06:00 -15°C° 0 mm 1 mps 608 mmHg 73%
    07:00 -15°C° 0 mm 1 mps 608 mmHg 72%
    08:00 -13°C° 0 mm 1 mps 609 mmHg 71%
    09:00 -12°C° 0 mm 1 mps 610 mmHg 69%
    10:00 -10°C° 0 mm 1 mps 611 mmHg 67%
    11:00 -9°C° 0 mm 1 mps 611 mmHg 64%
    12:00 -7°C° 0 mm 1 mps 612 mmHg 60%
    13:00 -6°C° 0 mm 1 mps 612 mmHg 57%
    14:00 -8°C° 0 mm 1 mps 611 mmHg 65%
    15:00 -9°C° 0 mm 1 mps 611 mmHg 73%
    16:00 -11°C° 0 mm 1 mps 610 mmHg 81%
    17:00 -12°C° 0 mm 1 mps 610 mmHg 82%
    18:00 -13°C° 0 mm 1 mps 610 mmHg 84%
    19:00 -14°C° 0 mm 1 mps 610 mmHg 85%
    20:00 -14°C° 0 mm 1 mps 611 mmHg 81%
    21:00 -14°C° 0 mm 1 mps 611 mmHg 77%
    22:00 -14°C° 0 mm 1 mps 611 mmHg 73%
    23:00 -16°C° 0 mm 2 mps 611 mmHg 72%

    Tomorrow, 15 December, Saturday

    Time Temperature Precipitation Wind Pressure Humidity
    00:00 -16°C° 0 mm 2 mps 611 mmHg 70%
    01:00 -17°C° 0 mm 2 mps 611 mmHg 68%
    02:00 -17°C° 0 mm 2 mps 611 mmHg 70%
    03:00 -17°C° 0 mm 2 mps 612 mmHg 71%
    04:00 -17°C° 0 mm 2 mps 612 mmHg 73%
    05:00 -17°C° 0 mm 2 mps 612 mmHg 74%
    06:00 -17°C° 0 mm 2 mps 612 mmHg 76%
    07:00 -17°C° 0 mm 2 mps 612 mmHg 78%
    08:00 -15°C° 0 mm 2 mps 613 mmHg 77%
    09:00 -14°C° 0 mm 2 mps 614 mmHg 76%
    10:00 -10°C° 0 mm 1 mps 614 mmHg 76%
    11:00 -9°C° 0 mm 1 mps 614 mmHg 72%
    12:00 -7°C° 0 mm 1 mps 614 mmHg 69%
    13:00 -7°C° 0 mm 2 mps 615 mmHg 65%
    14:00 -7°C° 0 mm 1 mps 614 mmHg 70%
    15:00 -9°C° 0 mm 1 mps 613 mmHg 74%
    16:00 -10°C° 0 mm 1 mps 613 mmHg 79%
    17:00 -11°C° 0 mm 1 mps 613 mmHg 75%
    18:00 -12°C° 0 mm 1 mps 613 mmHg 71%
    19:00 -13°C° 0 mm 1 mps 612 mmHg 68%
    20:00 -13°C° 0 mm 1 mps 612 mmHg 64%
    21:00 -13°C° 0 mm 1 mps 612 mmHg 61%
    22:00 -12°C° 0 mm 1 mps 612 mmHg 57%
    23:00 -12°C° 0 mm 1 mps 612 mmHg 56%

    Day after tomorrow, 16 December, Sunday

    Time Temperature Precipitation Wind Pressure Humidity
    00:00 -11°C° 0 mm 1 mps 612 mmHg 54%
    01:00 -11°C° 0 mm 1 mps 612 mmHg 52%
    02:00 -10°C° 0 mm 1 mps 612 mmHg 53%
    03:00 -10°C° 0 mm 2 mps 612 mmHg 54%
    04:00 -9°C° 0 mm 2 mps 612 mmHg 55%
    05:00 -8°C° 0.3 mm 2 mps 612 mmHg 61%
    06:00 -7°C° 0.3 mm 1 mps 612 mmHg 68%
    07:00 -6°C° 0.3 mm 1 mps 613 mmHg 74%
    08:00 -4°C° 0.4 mm 1 mps 613 mmHg 76%
    09:00 -3°C° 0.4 mm 1 mps 613 mmHg 79%
    10:00 -2°C° 0.4 mm 1 mps 614 mmHg 81%
    11:00 -1°C° 0 mm 1 mps 614 mmHg 81%
    12:00 0°C° 0 mm 1 mps 614 mmHg 81%
    13:00 +1°C° 0 mm 1 mps 614 mmHg 81%
    14:00 0°C° 0.1 mm 1 mps 614 mmHg 83%
    15:00 -1°C° 0.1 mm 1 mps 614 mmHg 85%
    16:00 -1°C° 0.1 mm 1 mps 613 mmHg 87%
    17:00 -2°C° 0.5 mm 1 mps 613 mmHg 88%
    18:00 -3°C° 0.5 mm 0 mps 614 mmHg 88%
    19:00 -4°C° 0.5 mm 0 mps 614 mmHg 89%
    20:00 -3°C° 0.6 mm 1 mps 614 mmHg 90%
    21:00 -3°C° 0.6 mm 1 mps 614 mmHg 92%
    22:00 -3°C° 0.6 mm 1 mps 614 mmHg 93%
    23:00 -3°C° 0.4 mm 1 mps 614 mmHg 93%

    17 December, Monday

    Time Temperature Precipitation Wind Pressure Humidity
    00:00 -3°C° 0.4 mm 1 mps 614 mmHg 93%
    01:00 -3°C° 0.4 mm 1 mps 614 mmHg 93%
    02:00 -3°C° 0 mm 1 mps 613 mmHg 92%
    03:00 -4°C° 0 mm 1 mps 613 mmHg 91%
    04:00 -4°C° 0 mm 1 mps 612 mmHg 90%
    05:00 -4°C° 0 mm 1 mps 613 mmHg 90%
    06:00 -6°C° 0 mm 1 mps 613 mmHg 90%
    07:00 -6°C° 0 mm 1 mps 613 mmHg 89%
    08:00 -4°C° 0 mm 1 mps 613 mmHg 88%
    09:00 -4°C° 0 mm 1 mps 614 mmHg 87%
    10:00 -3°C° 0 mm 1 mps 615 mmHg 86%
    11:00 -2°C° 0 mm 1 mps 615 mmHg 85%
    12:00 -4°C° 0 mm 2 mps 615 mmHg 85%
    13:00 -3°C° 0 mm 2 mps 616 mmHg 84%
    14:00 -4°C° 0 mm 2 mps 616 mmHg 86%
    15:00 -4°C° 0 mm 2 mps 616 mmHg 89%
    16:00 -5°C° 0 mm 2 mps 616 mmHg 91%
    17:00 -6°C° 0 mm 2 mps 616 mmHg 91%
    18:00 -7°C° 0 mm 2 mps 617 mmHg 91%
    19:00 -7°C° 0 mm 2 mps 617 mmHg 91%
    20:00 -8°C° 0 mm 2 mps 617 mmHg 90%
    21:00 -8°C° 0 mm 2 mps 617 mmHg 89%
    22:00 -9°C° 0 mm 2 mps 618 mmHg 88%
    23:00 -9°C° 0 mm 2 mps 618 mmHg 87%

    18 December, Tuesday

    Time Temperature Precipitation Wind Pressure Humidity
    00:00 -9°C° 0 mm 2 mps 618 mmHg 86%
    01:00 -10°C° 0 mm 2 mps 618 mmHg 84%
    02:00 -9°C° 0 mm 1 mps 618 mmHg 84%
    03:00 -9°C° 0 mm 1 mps 618 mmHg 83%
    04:00 -9°C° 0 mm 1 mps 618 mmHg 83%
    05:00 -9°C° 0 mm 1 mps 618 mmHg 81%
    06:00 -9°C° 0 mm 1 mps 618 mmHg 80%
    07:00 -10°C° 0 mm 1 mps 618 mmHg 78%
    08:00 -8°C° 0 mm 1 mps 618 mmHg 76%
    09:00 -7°C° 0 mm 1 mps 619 mmHg 74%
    10:00 -4°C° 0 mm 1 mps 619 mmHg 71%
    11:00 -5°C° 0 mm 2 mps 619 mmHg 71%
    12:00 -3°C° 0 mm 2 mps 619 mmHg 70%
    13:00 -2°C° 0 mm 2 mps 619 mmHg 70%
    14:00 -3°C° 0 mm 2 mps 619 mmHg 70%
    15:00 -4°C° 0 mm 2 mps 618 mmHg 70%
    16:00 -5°C° 0 mm 2 mps 617 mmHg 71%
    17:00 -6°C° 0 mm 2 mps 617 mmHg 67%
    18:00 -7°C° 0 mm 2 mps 616 mmHg 63%
    19:00 -8°C° 0 mm 2 mps 616 mmHg 58%
    20:00 -8°C° 0 mm 2 mps 616 mmHg 57%
    21:00 -8°C° 0 mm 2 mps 616 mmHg 56%
    22:00 -8°C° 0 mm 3 mps 616 mmHg 55%
    23:00 -8°C° 0 mm 3 mps 616 mmHg 55%

    19 December, Wednesday

    Time Temperature Precipitation Wind Pressure Humidity
    00:00 -7°C° 0 mm 2 mps 616 mmHg 55%
    01:00 -7°C° 0 mm 2 mps 615 mmHg 56%
    02:00 -6°C° 0 mm 2 mps 615 mmHg 57%
    03:00 -6°C° 0 mm 2 mps 615 mmHg 59%
    04:00 -5°C° 0 mm 2 mps 615 mmHg 60%
    05:00 -5°C° 0 mm 2 mps 615 mmHg 61%
    06:00 -5°C° 0 mm 2 mps 615 mmHg 61%
    07:00 -5°C° 0 mm 2 mps 615 mmHg 61%
    08:00 -3°C° 0 mm 1 mps 615 mmHg 63%
    09:00 -2°C° 0 mm 1 mps 616 mmHg 64%
    10:00 -1°C° 0 mm 1 mps 616 mmHg 66%
    11:00 0°C° 0 mm 1 mps 616 mmHg 67%
    12:00 +1°C° 0 mm 1 mps 616 mmHg 69%
    13:00 +1°C° 0 mm 1 mps 616 mmHg 70%
    14:00 -1°C° 0 mm 0 mps 615 mmHg 73%
    15:00 -2°C° 0 mm 0 mps 615 mmHg 76%
    16:00 -4°C° 0 mm 0 mps 614 mmHg 79%
    17:00 -4°C° 0 mm 0 mps 614 mmHg 79%
    18:00 -5°C° 0 mm 0 mps 614 mmHg 79%
    19:00 -4°C° 0 mm 1 mps 614 mmHg 79%
    20:00 -4°C° 0.1 mm 1 mps 614 mmHg 80%
    21:00 -4°C° 0.1 mm 1 mps 614 mmHg 81%
    22:00 -4°C° 0.1 mm 1 mps 614 mmHg 83%
    23:00 -4°C° 0.3 mm 1 mps 614 mmHg 85%
    Show more